Time,TemperatureF,DewpointF,PressureIn,WindDirection,WindDirectionDegrees,WindSpeedMPH,WindSpeedGustMPH,Humidity,HourlyPrecipIn,Conditions,Clouds,dailyrainin,SolarRadiationWatts/m^2,SoftwareType,DateUTC
2013-01-10 00:12:00,24.0,9.0,-100.00,WSW,240,1.0,4.0,53,-99.99,,,0.00,0.000000,,2013-01-10 07:12:00,
2013-01-10 00:22:00,24.0,9.0,-100.00,WSW,240,1.0,4.0,53,-99.99,,,0.00,0.000000,,2013-01-10 07:22:00,
2013-01-10 01:11:00,28.0,11.0,-100.00,SE,144,2.0,4.0,49,0.00,,,0.00,0.000000,,2013-01-10 08:11:00,
2013-01-10 01:22:00,28.0,11.0,-100.00,SE,144,2.0,4.0,49,0.00,,,0.00,0.000000,,2013-01-10 08:22:00,
2013-01-10 02:12:00,28.0,9.0,-100.00,SE,125,2.0,8.0,44,-99.99,,,0.00,0.000000,,2013-01-10 09:12:00,
2013-01-10 02:22:00,28.0,9.0,-100.00,SE,125,2.0,8.0,44,-99.99,,,0.00,0.000000,,2013-01-10 09:22:00,
2013-01-10 03:12:00,30.0,11.0,-100.00,ESE,104,4.0,8.0,45,-99.99,,,0.00,0.000000,,2013-01-10 10:12:00,
2013-01-10 04:12:00,30.0,10.0,-100.00,SE,134,3.0,7.0,43,-99.99,,,0.00,0.000000,,2013-01-10 11:12:00,
2013-01-10 04:22:00,30.0,10.0,-100.00,SE,134,3.0,7.0,43,-99.99,,,0.00,0.000000,,2013-01-10 11:22:00,
2013-01-10 05:12:00,27.0,9.0,-100.00,NE,38,2.0,6.0,45,-99.99,,,0.00,0.000000,,2013-01-10 12:12:00,
2013-01-10 05:22:00,27.0,9.0,-100.00,NE,38,2.0,6.0,45,-99.99,,,0.00,0.000000,,2013-01-10 12:22:00,
2013-01-10 05:32:00,27.0,9.0,-100.00,NE,38,2.0,6.0,45,-99.99,,,0.00,0.000000,,2013-01-10 12:32:00,
2013-01-10 07:22:00,32.0,9.0,-100.00,SE,126,2.0,9.0,38,-99.99,,,0.00,0.000000,,2013-01-10 14:22:00,
2013-01-10 07:32:00,32.0,9.0,-100.00,SE,126,2.0,9.0,38,-99.99,,,0.00,0.000000,,2013-01-10 14:32:00,
2013-01-10 08:12:00,31.0,8.0,-100.00,SSE,153,2.0,7.0,37,-99.99,,,0.00,1.000000,,2013-01-10 15:12:00,
2013-01-10 08:22:00,31.0,8.0,-100.00,SSE,153,2.0,7.0,37,-99.99,,,0.00,1.000000,,2013-01-10 15:22:00,
2013-01-10 09:12:00,35.0,4.0,-100.00,SSW,205,6.0,13.0,27,-99.99,,,-99.99,42.000000,,2013-01-10 16:12:00,
2013-01-10 09:22:00,35.0,4.0,-100.00,SSW,205,6.0,13.0,27,-99.99,,,-99.99,42.000000,,2013-01-10 16:22:00,
2013-01-10 10:12:00,41.0,5.0,-100.00,SSW,207,7.0,14.0,22,-99.99,,,0.00,169.000000,,2013-01-10 17:12:00,
2013-01-10 10:22:00,41.0,5.0,-100.00,SSW,207,7.0,14.0,22,-99.99,,,0.00,169.000000,,2013-01-10 17:22:00,
2013-01-10 11:12:00,50.0,6.0,-100.00,East,87,3.0,18.0,16,-99.99,,,0.00,449.000000,,2013-01-10 18:12:00,
2013-01-10 12:12:00,43.0,5.0,-100.00,SSW,200,12.0,27.0,20,-99.99,,,0.00,545.000000,,2013-01-10 19:12:00,
2013-01-10 13:12:00,43.0,10.0,-100.00,SSW,207,12.0,27.0,25,-99.99,,,0.00,401.000000,,2013-01-10 20:12:00,
2013-01-10 14:12:00,39.0,10.0,-100.00,SW,217,20.0,37.0,30,-99.99,,,0.00,323.000000,,2013-01-10 21:12:00,
2013-01-10 14:23:00,39.0,10.0,-100.00,SW,217,20.0,37.0,30,-99.99,,,0.00,323.000000,,2013-01-10 21:23:00,
2013-01-10 14:33:00,39.0,10.0,-100.00,SW,217,20.0,37.0,30,-99.99,,,0.00,323.000000,,2013-01-10 21:33:00,
2013-01-10 14:42:00,39.0,10.0,-100.00,SW,217,20.0,37.0,30,-99.99,,,0.00,323.000000,,2013-01-10 21:42:00,
2013-01-10 15:12:00,40.0,13.0,-100.00,SW,224,19.0,37.0,32,0.00,,,0.00,190.000000,,2013-01-10 22:12:00,
2013-01-10 15:32:00,40.0,13.0,-100.00,SW,224,19.0,37.0,32,0.00,,,0.00,190.000000,,2013-01-10 22:32:00,
2013-01-10 15:42:00,40.0,13.0,-100.00,SW,224,19.0,37.0,32,0.00,,,0.00,190.000000,,2013-01-10 22:42:00,
2013-01-10 16:12:00,38.0,16.0,-100.00,SW,221,17.0,34.0,41,0.00,,,0.00,82.000000,,2013-01-10 23:12:00,
2013-01-10 16:22:00,38.0,16.0,-100.00,SW,221,17.0,34.0,41,0.00,,,0.00,82.000000,,2013-01-10 23:22:00,
2013-01-10 16:32:00,38.0,16.0,-100.00,SW,221,17.0,34.0,41,0.00,,,0.00,82.000000,,2013-01-10 23:32:00,
2013-01-10 16:42:00,38.0,16.0,-100.00,SW,221,17.0,34.0,41,0.00,,,0.00,82.000000,,2013-01-10 23:42:00,
2013-01-10 17:12:00,35.0,23.0,-100.00,SW,215,16.0,33.0,60,0.00,,,0.00,25.000000,,2013-01-11 00:12:00,
2013-01-10 17:23:00,35.0,23.0,-100.00,SW,215,16.0,33.0,60,0.00,,,0.00,25.000000,,2013-01-11 00:23:00,
2013-01-10 17:32:00,35.0,23.0,-100.00,SW,215,16.0,33.0,60,0.00,,,0.00,25.000000,,2013-01-11 00:32:00,
2013-01-10 17:42:00,35.0,23.0,-100.00,SW,215,16.0,33.0,60,0.00,,,0.00,25.000000,,2013-01-11 00:42:00,
2013-01-10 18:12:00,33.0,23.0,-100.00,SSW,213,19.0,29.0,67,0.00,,,0.00,3.000000,,2013-01-11 01:12:00,
2013-01-10 18:22:00,33.0,23.0,-100.00,SSW,213,19.0,29.0,67,0.00,,,0.00,3.000000,,2013-01-11 01:22:00,
2013-01-10 18:33:00,33.0,23.0,-100.00,SSW,213,19.0,29.0,67,0.00,,,0.00,3.000000,,2013-01-11 01:33:00,
2013-01-10 18:42:00,33.0,23.0,-100.00,SSW,213,19.0,29.0,67,0.00,,,0.00,3.000000,,2013-01-11 01:42:00,
2013-01-10 19:12:00,36.0,22.0,-100.00,SSW,200,18.0,36.0,57,0.00,,,0.00,0.000000,,2013-01-11 02:12:00,
2013-01-10 19:22:00,36.0,22.0,-100.00,SSW,200,18.0,36.0,57,0.00,,,0.00,0.000000,,2013-01-11 02:22:00,
2013-01-10 19:32:00,36.0,22.0,-100.00,SSW,200,18.0,36.0,57,0.00,,,0.00,0.000000,,2013-01-11 02:32:00,
2013-01-10 19:42:00,36.0,22.0,-100.00,SSW,200,18.0,36.0,57,0.00,,,0.00,0.000000,,2013-01-11 02:42:00,
2013-01-10 20:12:00,35.0,20.0,-100.00,SSW,202,18.0,43.0,55,0.00,,,0.00,0.000000,,2013-01-11 03:12:00,
2013-01-10 20:22:00,35.0,20.0,-100.00,SSW,202,18.0,43.0,55,0.00,,,0.00,0.000000,,2013-01-11 03:22:00,
2013-01-10 20:33:00,35.0,20.0,-100.00,SSW,202,18.0,43.0,55,0.00,,,0.00,0.000000,,2013-01-11 03:33:00,
2013-01-10 20:42:00,35.0,20.0,-100.00,SSW,202,18.0,43.0,55,0.00,,,0.00,0.000000,,2013-01-11 03:42:00,
2013-01-10 21:12:00,36.0,22.0,-100.00,SSW,200,15.0,38.0,56,0.00,,,0.00,0.000000,,2013-01-11 04:12:00,
2013-01-10 21:22:00,36.0,22.0,-100.00,SSW,200,15.0,38.0,56,0.00,,,0.00,0.000000,,2013-01-11 04:22:00,
2013-01-10 21:32:00,36.0,22.0,-100.00,SSW,200,15.0,38.0,56,0.00,,,0.00,0.000000,,2013-01-11 04:32:00,
2013-01-10 21:42:00,36.0,22.0,-100.00,SSW,200,15.0,38.0,56,0.00,,,0.00,0.000000,,2013-01-11 04:42:00,
2013-01-10 22:12:00,33.0,21.0,-100.00,SSW,208,17.0,29.0,61,0.00,,,0.00,0.000000,,2013-01-11 05:12:00,
2013-01-10 22:22:00,33.0,21.0,-100.00,SSW,208,17.0,29.0,61,0.00,,,0.00,0.000000,,2013-01-11 05:22:00,
2013-01-10 22:33:00,33.0,21.0,-100.00,SSW,208,17.0,29.0,61,0.00,,,0.00,0.000000,,2013-01-11 05:33:00,
2013-01-10 22:42:00,33.0,21.0,-100.00,SSW,208,17.0,29.0,61,0.00,,,0.00,0.000000,,2013-01-11 05:42:00,
2013-01-10 23:12:00,31.0,28.0,-100.00,SSW,204,14.0,31.0,87,0.00,,,0.00,0.000000,,2013-01-11 06:12:00,
2013-01-10 23:22:00,31.0,28.0,-100.00,SSW,204,14.0,31.0,87,0.00,,,0.00,0.000000,,2013-01-11 06:22:00,
2013-01-10 23:32:00,31.0,28.0,-100.00,SSW,204,14.0,31.0,87,0.00,,,0.00,0.000000,,2013-01-11 06:32:00,
2013-01-10 23:42:00,31.0,28.0,-100.00,SSW,204,14.0,31.0,87,0.00,,,0.00,0.000000,,2013-01-11 06:42:00,